JCSAT-15

Last updated on May 23, 2019, 3:05 a.m. UTC

1 41903U 16082A   19142.89928574 -.00000359  00000-0  00000+0 0  9990
2 41903   0.0130 296.1515 0001525 138.9362 238.9406  1.00271631  8884
UTC
Height (km)
Latitude
Longitude
Inclination
Orbital Period
UTC large
Height (km)
Speed (km/s)
/
Latitude / Longitude
Inclination (degrees)
Orbital Period (minutes)
Azimuth
Elevation
Range (km)
Doppler Factor
iOS Compass Heading
iOS Angle

Next 30 passes for location: Hong Kong

Rise time Rise Azimuth (degrees) Set time Set Azimuth (degrees) Duration Max altitude (degrees)

No matching passes for this satellites